Location: Bad Rothenbrunn
(47.2167°N, 11.2167°E)
Time: 08:45:11
(UTC+00:00)

GP-B - Pass Details

Date: 03 March 2021
Orbit: 631 x 635 km, 89.8° (Epoch: 14 April)

Event Time Altitude Azimuth Distance (km) Brightness Sun altitude
Rises 17:44:57 0° 149° (SSE) 2,920 6.2 -7.8°
Reaches altitude 10° 17:47:22 10° 139° (SE) 2,017 5.3 -8.2°
Maximum altitude 17:51:12 30° 79° (ENE) 1,156 3.9 -8.9°
Drops below altitude 10° 17:55:04 10° 19° (NNE) 2,032 5.5 -9.6°
Sets 17:57:30 0° 8° (N) 2,946 6.5 -10.0°
